Regional Weather Roundup
Issued by NWS

Home | Current Version | Previous Version | Text Only | Print | Product List | Glossary On
Versions: 1 2 3 4 5 6 7 8 9 10 11 12 13 14 15 16 17 18 19 20 21 22 23 24 25 26 27 28 29 30 31 32 33 34 35 36 37 38 39 40 41 42 43 44 45 46 47 48 49 50
707
ASUS43 KLSX 302057
RWRMO

WEATHER SUMMARY FOR MISSOURI
NATIONAL WEATHER SERVICE SPRINGFIELD MO
400 PM CDT TUE AUG 30 2016

NOTE: "FAIR" INDICATES FEW OR NO CLOUDS BELOW 12,000 FEET WITH NO
       SIGNIFICANT WEATHER AND/OR OBSTRUCTIONS TO VISIBILITY.
       CURRENT SKY AND/OR WEATHER CONDITIONS ARE NOT AVAILABLE FOR
       CHILLICOTHE AND FARMINGTON.

MOZ001>031-035>038-043-044-053-054-302200-
...NORTHERN AND WESTERN MISSOURI...

CITY           SKY/WX    TMP DP  RH WIND       PRES   REMARKS
KANSAS CTY INT MOSUNNY   85  70  60 NE7       30.10F
LEE`S SUMMIT   MOSUNNY   86  73  65 VRB3      30.10F HX  93
ST JOSEPH      CLOUDY    82  71  69 NE8       30.10F
CHILLICOTHE      N/A     86  72  62 CALM      30.10F HX  92

$$
MOZ066>068-077>081-088>096-101>105-302200-
...SOUTHWEST MISSOURI...

CITY           SKY/WX    TMP DP  RH WIND       PRES   REMARKS
SPRINGFIELD    MOSUNNY   92  67  43 NE12      30.07F HX  95
JOPLIN         MOSUNNY   91  72  53 NE8       30.05F HX  98
BRANSON        PTSUNNY   88  72  58 E7        30.09F HX  94

$$
MOZ032>034-039>042-045>050-055>058-069>072-302200-
...CENTRAL MISSOURI...

CITY           SKY/WX    TMP DP  RH WIND       PRES   REMARKS
COLUMBIA       NOT AVBL
JEFFERSON CITY PTSUNNY   75  71  87 NE3       30.09F
ROLLA          CLOUDY    77  69  76 N14       30.11R THUNDER
SEDALIA        CLOUDY    88  72  58 NE6       30.10F HX  94
OSAGE BEACH    CLOUDY    81  72  74 NE8       30.10F

$$
MOZ051-052-059>065-302200-
...EAST CENTRAL MISSOURI...

CITY           SKY/WX    TMP DP  RH WIND       PRES   REMARKS
ST LOUIS INTL  LGT RAIN  75  71  87 NW6       30.12F
SPIRIT OF STL  TSTM      73  72  94 NW9       30.14R VSB 3/4

$$
MOZ072>076-082>087-097>100-106>115-302200-
...SOUTH CENTRAL AND SOUTHEAST MISSOURI...

CITY           SKY/WX    TMP DP  RH WIND       PRES   REMARKS
CAPE GIRARDEAU SUNNY     92  72  51 NE7       30.04F HX  99
POPLAR BLUFF   MOSUNNY   92  74  55 NE6       30.03F HX 101
WEST PLAINS    MOSUNNY   92  68  45 VRB3      30.10F HX  96

$$



USA.gov is the U.S. government's official web portal to all federal, state and local government web resources and services.